Find OneWeb SL0330

NORAD ID: 49108 Int'l Des: 2021-075 Owner: ONEWEBN Country: UK Constellation: oneweb operational
LEOCIRCULARPOLARONEWEB_TYPE

リアルタイム位置

3D地球を読み込み中...

OneWeb SL0330について

説明を読み込み中...

次回通過

Passes for default location (London). Set your location on the main map for personalized predictions.

高度履歴

Loading altitude history...

軌道要素

1 49108U 21075AK 26106.46950652 .00000056 00000-0 11128-3 0 9996
2 49108 87.9189 18.1479 0001660 72.8909 287.2404 13.17649608225498
Epoch: Apr 16, 2026 • Age: 22 hours

現在のステータス

高度 1199.2 km
速度 7.25 km/s
衛星直下点 -13.59°S, 35.92°E
打ち上げ日 Aug 21, 2021
運用期間 4.6 years
タイプ internet

技術仕様

分類 Payload
質量 148.00 kg
乾燥質量 140.00 kg
総質量 148.00 kg
長さ 1.30 m
直径 1.00 m
スパン 5.00 m
形状 Trapezoid+2 pan
製造者 ONEWUS
バスタイプ ARROW
フェーズステータス In Orbit
所有者/国 ONEWEBN/UK

Most Searched